CZ-4 DEB

Satellite information

Favourite Embed

Satellite Type and Status

DEBRISIN ORBIT

Key statistics

Satellite CZ-4 DEB at a glance.

Uptime

12666

Days in orbit

Revolutions

≈ 14.6

Per day

Orbit

SSO

Sun Synchronous Orbit

Inclination

98.2

Latest

Satellite identification and parameters

Extended collection of information and parameters for CZ-4 DEB.

Object identification

Identified? True

Debris? True

Object name: CZ-4 DEB

International designator: 1990-081R

Object number (NORAD): 20853

Object ID (CCSDS): 20853

Country: PEOPLES REPUBLIC OF CHINA (PRC)

Current information (Y/N): Y

RCS size: MEDIUM

Orbital parameters

Period: 98.62 minutes

Inclination: 98.2432 deg

SMA: 7070.841 km

Apoapsis: 707.046 km

Periapsis: 678.366 km

RAAN: 131.8385 deg

Eccentricy: 0.002028

Argument of periapsis: 105.7698 deg

Mean anomaly: 7.5672 deg

Mean motion: 14.60145615 rev/day

Mean motion (dot): 0.00009565 rev/day2

B* drag term: 0.0019888 1/REarth

Two-line elements (TLE)

Creation date: May 8, 2025, 3:01 a.m.

Reference frame: TEME

Reference center: EARTH

Epoch: May 7, 2025, 2:10 p.m. UTC

TLE line 0: 0 CZ-4 DEB

TLE line 1: 1 20853U 90081R 25127.59031573 .00009565 00000-0 19888-2 0 9997

TLE line 2: 2 20853 98.2432 131.8385 0020280 105.7698 7.5672 14.60145615799055

Live tracking on map

Real-time ground track for satellite CZ-4 DEB.

In-orbit conjunctions

A list of the most updated potential collisions computed for object CZ-4 DEB.

Target Orbit TCA Probability of collision Miss distance Type
SL-8 R/B LEO 2025-02-21 14:58:04 0.0001313204 480.0 (m) ROCKET BODY
FENGYUN 1C DEB SSO 2024-08-09 02:31:32 0.0001373308 289.0 (m) DEBRIS

Associated space launch

Chinese polar orbiting meteorological satellite

CZ-4 DEB was lifted into orbit during the mission ‘Long March 4A | Feng Yun 1B’, on board a Long March 4A space rocket.

The launch took place on Sept. 3, 1990, 12:53 a.m. from Launch Complex 7.

For more information about the launch, click the button.

Launch to space Long March 4A | Feng Yun 1B
Long March 4A | Feng Yun 1B

Agency: N/A

Status: Launch Successful

Launch date: Sept. 3, 1990, 12:53 a.m. UTC

Rocket: Long March 4A

Launch pad: Launch Complex 7

Location: Taiyuan Satellite Launch Center, People's Republic of China

...

Latest news about this satellite

There are no fresh news available about this satellite. Check back as we update our databases every day.


Newsletter sign-up

Weekly statistics, charts and insights to help you stay on top of the space industry.